Overview Statistics Trail Chart Weather Telemetry Raw packets
 

This is the latest recevied weather packets stored in our database for station/object SV7GBF-2. If no packets are shown the sender has not sent any weather packets the latest 10 day(s).

<< 1 2 3 4 >>
Time Temp. Humidity Pressure Rain* Wind** Luminosity Snow
1788675848 25° C 48% 1016 hPa - - - -
1788675249 25° C 42% 1016 hPa - - - -
1788674047 23.33° C 32% 1016 hPa - - - -
1788673449 23.33° C 32% 1016 hPa - - - -
1788672847 22.78° C 32% 1016 hPa - - - -
1788670448 22.22° C 31% 1016 hPa - - - -
1788669245 21.67° C 31% 1016 hPa - - - -
1788668645 21.67° C 31% 1016 hPa - - - -
1788668046 21.67° C 30% 1016 hPa - - - -
1788667448 21.67° C 30% 1016 hPa - - - -
1788666846 21.67° C 29% 1015 hPa - - - -
1788666246 21.67° C 29% 1015 hPa - - - -
1788665646 21.67° C 29% 1015 hPa - - - -
1788665047 22.22° C 32% 1015 hPa - - - -
1788664446 22.22° C 32% 1015 hPa - - - -
1788663846 22.22° C 32% 1015 hPa - - - -
1788663246 22.78° C 32% 1015 hPa - - - -
1788662646 22.78° C 31% 1015 hPa - - - -
1788662046 22.78° C 31% 1015 hPa - - - -
1788661446 22.78° C 29% 1015 hPa - - - -
1788660248 22.78° C 28% 1015 hPa - - - -
1788659646 22.78° C 31% 1015 hPa - - - -
1788659046 22.22° C 26% 1015 hPa - - - -
1788658446 22.78° C 25% 1015 hPa - - - -
1788657846 23.33° C 25% 1015 hPa - - - -

* Rain since midnight (hover to see other rain measurements)
** Current wind speed in m/s (hover to see current wind gust speed)